{"data":{"norad_id":65560,"epoch":"2026-09-20T20:57:11.954592Z","epoch_age_seconds":120300,"freshness":"FRESH","line1":"1 65560U 25201L   26263.87305503  .00000785  00000+0  11928-3 0  9995","line2":"2 65560  49.9884 314.8957 0008468 346.7783  13.2932 14.84408866 56030","mean_motion":14.84408866,"eccentricity":0.0008468,"inclination_deg":49.9884,"raan_deg":314.8957,"arg_perigee_deg":346.7783,"mean_anomaly_deg":13.2932,"bstar":0.00011928,"rev_number":5603,"period_min":97.008313072148,"perigee_km":609.51978116714,"apogee_km":621.36410646638,"semimajor_km":6993.5789438168,"source":"CELESTRAK","updated_at":"2026-09-21T09:00:15.426920Z"}}